ATLAS CENTAUR 2 R/B 1 00694U 63047A 22145.74062278 .00002374 00000-0 29451-3 0 9999 2 00694 30.3594 314.8830 0582276 210.4096 146.1469 14.03503675936490 THOR AGENA D R/B 1 733U 64002A 22146.40266190 .00000208 00000-0 93644-4 0 9998 2 733 98.9893 74.7954 0033288 329.5686 30.3564 14.32532966 40590 SL-3 R/B 1 877U 64053B 22146.16499404 .00000224 00000-0 70997-4 0 9996 2 877 65.0793 60.6367 0052409 132.0486 228.5091 14.59532285 64760 SL-8 R/B 1 02802U 67045B 22145.88435369 .00000395 00000-0 12082-3 0 9997 2 02802 74.0143 48.4678 0065796 28.3598 332.1114 14.43916708889225 SL-8 R/B 1 03230U 68040B 22145.65732544 .00002022 00000-0 20488-3 0 9997 2 03230 74.0370 231.4789 0028662 61.1066 299.2986 14.91373413882985 OAO 2 1 03597U 68110A 22145.18886611 .00000281 00000-0 83127-4 0 9999 2 03597 34.9944 66.0770 0006359 266.9945 93.0017 14.45957730818540 ISIS 1 1 03669U 69009A 22145.49276015 .00000065 00000-0 40374-4 0 9999 2 03669 88.4161 308.2407 1711379 1.5198 359.0195 11.29547189192204 SERT 2 1 4327U 70009A 22146.17703950 .00000008 00000-0 66313-4 0 9990 2 4327 99.1249 156.6673 0005990 105.6186 342.8795 13.58518457592434 SL-3 R/B 1 4814U 70113B 22146.33990884 .00011193 00000-0 27615-3 0 9997 2 4814 81.1424 24.7853 0021412 352.8638 7.2295 15.40153392811304 SL-3 R/B 1 05118U 71028B 22145.84766954 .00003566 00000-0 17770-3 0 9991 2 05118 81.2558 243.2776 0044775 355.1739 4.9052 15.16399129776924 ASTEX 1 1 5560U 71089A 22146.36445135 .00000469 00000-0 12550-3 0 9992 2 5560 92.7257 65.0658 0018425 70.2123 290.1066 14.48283844662212 SL-8 R/B 1 5730U 71119B 22146.12575390 .00009065 00000-0 56851-3 0 9999 2 5730 73.8909 177.9513 0672185 63.7210 303.1390 14.08095427458864 COSMOS 482 DESCENT CRAFT 1 6073U 72023E 22146.07697345 .00058872 69390-5 19991-3 0 9990 2 6073 52.0262 80.9375 1166731 61.3534 309.9687 13.51503142596135 OAO 3 (COPERNICUS) 1 6153U 72065A 22146.37973883 .00000290 00000-0 66569-4 0 9995 2 6153 35.0060 245.4323 0006666 16.9700 51.2167 14.58090826644336 ATLAS CENTAUR R/B 1 6155U 72065B 22146.27687696 .00001033 00000-0 16391-3 0 9993 2 6155 35.0039 92.5056 0038082 304.0208 55.6877 14.71961697657865 SL-8 R/B 1 08459U 75112B 22145.85248237 .00000253 00000-0 94036-4 0 9991 2 08459 74.0637 41.6049 0015158 121.2964 238.9676 14.36924158433020 SL-3 R/B 1 10114U 77057B 22146.47435880 .00003363 00000-0 16411-3 0 9998 2 10114 97.4063 286.6484 0014437 134.3540 225.8880 15.18880354457175 SEASAT 1 1 10967U 78064A 22145.82851158 .00000312 00000-0 13120-3 0 9996 2 10967 107.9931 108.8792 0002815 272.1149 87.9673 14.44007377306615 METEOR 1-29 1 11251U 79005A 22145.97354710 .00012447 00000-0 27438-3 0 9996 2 11251 97.7264 115.1514 0015870 107.2934 253.0051 15.43941553916970 SL-14 R/B 1 11267U 79011B 22145.88670776 .00000575 00000-0 58123-4 0 9998 2 11267 82.5232 326.2893 0016665 355.8227 4.2849 14.89177813322665 SL-8 R/B 1 11574U 79089B 22145.40760494 .00000251 00000-0 86395-4 0 9992 2 11574 74.0680 130.0877 0017193 293.5011 66.4337 14.40893403236638 SL-14 R/B 1 11672U 80005B 22145.59859858 .00000558 00000-0 57589-4 0 9997 2 11672 82.5150 176.9100 0018217 89.6585 270.6720 14.88202812270463 SL-8 R/B 1 12139U 81003B 22146.19019960 .00009856 00000-0 44518-3 0 9991 2 12139 82.9491 76.0065 0444994 114.7734 250.0450 14.61890878109622 SL-3 R/B 1 12465U 81046B 22145.88158577 .00003783 00000-0 19288-3 0 9992 2 12465 81.2406 110.1329 0034110 50.1026 310.3193 15.15994587227398 METEOR PRIRODA 1 12585U 81065A 22146.07853567 .00005873 00000-0 24476-3 0 9996 2 12585 97.5833 150.6966 0012557 208.0899 151.9661 15.24035297236588 SL-3 R/B 1 12904U 81103B 22146.40637370 .00001410 00000-0 92689-4 0 9998 2 12904 81.1781 13.4413 0026553 242.3853 117.4674 15.06717575764335 SL-3 R/B 1 13068U 82013B 22146.09616294 .00003136 00000-0 19968-3 0 9993 2 13068 81.2010 321.5740 0020783 113.9489 246.3914 15.08323347195256 SL-3 R/B 1 13154U 82039B 22146.12253103 .00001868 00000-0 14813-3 0 9991 2 13154 81.1830 352.5965 0039573 173.7937 186.3782 14.99460967173939 SL-3 R/B 1 13403U 82079B 22146.11174527 .00001931 00000-0 12164-3 0 9991 2 13403 81.1686 1.3839 0035116 88.5239 272.0008 15.08187206168437 SL-3 R/B 1 13819U 83010B 22145.64952279 .00004082 00000-0 20096-3 0 9996 2 13819 81.1168 211.9729 0031761 79.6541 280.8265 15.17301100146562 COSMOS 1455 1 14032U 83037A 22145.87939346 .00006606 00000-0 29927-3 0 9994 2 14032 82.5135 102.9589 0018057 119.9830 240.3201 15.20537986134806 SL-3 R/B 1 14208U 83075B 22146.12384221 .00003501 00000-0 20128-3 0 9991 2 14208 97.4803 121.7201 0038426 30.3518 329.9926 15.12510850119925 COSMOS 1500 1 14372U 83099A 22145.63081594 .00005338 00000-0 23774-3 0 9991 2 14372 82.5154 358.0996 0012830 289.3485 70.6363 15.21166732111144 COSMOS 1536 1 14699U 84013A 22145.70840143 .00002085 00000-0 13891-3 0 9996 2 14699 82.5268 22.1373 0013359 29.2576 330.9397 15.06532906 63305 COSMOS 1544 1 14819U 84027A 22145.65541128 .00010127 00000-0 32560-3 0 9990 2 14819 82.4826 9.3712 0012519 148.5628 211.6364 15.32037132 90918 SL-14 R/B 1 14820U 84027B 22146.36138127 .00000410 00000-0 46497-4 0 9991 2 14820 82.5418 99.8189 0017508 223.6720 136.3111 14.83823787 63479 ERBS 1 15354U 84108B 22145.68575983 .00041609 00000-0 42596-3 0 9993 2 15354 57.0000 224.0317 0009578 12.6340 347.4962 15.64626202 77492 SL-8 R/B 1 15483U 85006B 22145.88011799 .00000305 00000-0 11261-3 0 9999 2 15483 74.0455 284.4202 0018707 183.7882 295.2983 14.36468098955231 COSMOS 1626 1 15494U 85009A 22145.73084526 .00008758 00000-0 32794-3 0 9990 2 15494 82.4789 240.8106 0002118 177.1788 182.9463 15.27144193 43158 SL-12 R/B(2) 1 15772U 85042D 22146.14907948 .00000179 00000-0 10330-3 0 9995 2 15772 71.1062 129.0535 0033439 119.9945 314.7989 14.21339241917756 SL-14 R/B 1 15945U 85069B 22145.79415014 .00000495 00000-0 56005-4 0 9995 2 15945 82.5291 243.6771 0021168 89.2850 271.0791 14.84210177967445 SL-16 R/B 1 16182U 85097B 22146.09227418 -.00000146 00000-0 -49403-4 0 9992 2 16182 71.0013 172.5815 0008864 219.8524 205.2112 14.16279700891624 SL-14 R/B 1 16496U 86006B 22145.91774619 .00000482 00000-0 54532-4 0 9991 2 16496 82.5232 119.0549 0017880 232.7859 184.6590 14.84306215943787 COSMOS 1743 1 16719U 86034A 22145.77014102 .00003723 00000-0 18515-3 0 9999 2 16719 82.5536 23.4009 0012450 141.7513 284.9616 15.17272373968600 SL-14 R/B 1 16792U 86046B 22145.90311583 .00000547 00000-0 63406-4 0 9992 2 16792 82.4808 304.9162 0025525 112.1091 248.2837 14.83410359921112 SL-14 R/B 1 16882U 86055B 22146.06260103 .00000461 00000-0 53118-4 0 9995 2 16882 82.5206 344.6152 0018802 217.9811 258.4572 14.83398877935270 EGS (AJISAI) 1 16908U 86061A 22145.85812244 -.00000084 00000-0 93831-4 0 9994 2 16908 50.0116 28.5158 0011430 5.5453 77.4255 12.44496246296031 COSMOS 1812 1 17295U 87003A 22146.07462723 .00005347 00000-0 26486-3 0 9996 2 17295 82.5124 167.6225 0003282 35.7235 324.4218 15.17564909932169 SL-14 R/B 1 17567U 87024B 22145.95870782 .00000548 00000-0 62854-4 0 9993 2 17567 82.5269 310.5254 0019804 150.9316 209.3007 14.83930755903937 COSMOS 1833 1 17589U 87027A 22145.84453117 .00000004 00000-0 27735-4 0 9993 2 17589 70.9151 354.4459 0024853 131.6168 228.7088 14.12892180814832 SL-16 R/B 1 17590U 87027B 22145.91587195 .00000229 00000-0 13832-3 0 9998 2 17590 71.0028 311.5114 0003080 60.5596 299.5835 14.16825906819595 SL-14 R/B 1 17912U 87038B 22145.53226655 .00000497 00000-0 57682-4 0 9996 2 17912 82.5002 158.1155 0021430 53.9630 306.3567 14.83203080895002 COSMOS 1844 1 17973U 87041A 22146.14724698 -.00000238 00000-0 -99112-4 0 9994 2 17973 70.9001 71.3896 0033323 296.9456 62.8262 14.14154808808160 SL-14 R/B 1 18153U 87055B 22145.67953572 .00000412 00000-0 47187-4 0 9999 2 18153 82.5019 211.0496 0020016 260.9809 98.9141 14.83454327864620 COSMOS 1867 1 18187U 87060A 22146.20396516 -.00000064 00000-0 13558-4 0 9990 2 18187 65.0102 219.9062 0018528 258.9170 100.9830 14.31144640822153 SL-14 R/B 1 18749U 88001B 22146.13429952 .00000410 00000-0 46851-4 0 9999 2 18749 82.5163 54.3977 0019957 123.1708 237.1425 14.83383985857864 COSMOS 1933 1 18958U 88020A 22146.09767161 .00001745 00000-0 12241-3 0 9991 2 18958 82.5273 161.9992 0009353 259.6900 100.3272 15.04571195862614 SL-3 R/B 1 19046U 88032B 22146.09656027 .00002080 00000-0 15418-3 0 9993 2 19046 97.3899 146.0371 0035600 317.1847 42.6608 15.03668248843547 SL-16 R/B 1 19120U 88039B 22146.18045086 -.00000092 00000-0 -20676-4 0 9996 2 19120 71.0133 113.0280 0024006 299.0198 60.8521 14.19245233762332 COSMOS 1953 1 19210U 88050A 22145.90247893 .00004445 00000-0 29268-3 0 9997 2 19210 82.5168 82.7256 0011546 219.9932 140.0447 15.07254890828163 SL-8 R/B 1 19257U 88053B 22146.19629910 .00000169 00000-0 64968-4 0 9993 2 19257 74.0464 139.5243 0021536 301.2798 139.9927 14.37599990777989 COSMOS 1975 1 19573U 88093A 22146.12759505 .00002777 00000-0 18757-3 0 9996 2 19573 82.5228 38.3277 0012391 268.8424 91.1383 15.06163043831101 SL-14 R/B 1 19574U 88093B 22146.05210546 .00000460 00000-0 52928-4 0 9992 2 19574 82.5324 258.3089 0020103 289.9775 242.7725 14.83495589816853 SL-16 R/B 1 19650U 88102B 22146.13764144 .00000303 00000-0 17837-3 0 9990 2 19650 70.9981 181.7670 0015886 311.1976 48.7776 14.15828302731322 INTERCOSMOS 24 1 20261U 89080A 22146.46360719 .00000512 00000-0 15430-3 0 9991 2 20261 82.6009 281.9792 1200614 253.9067 92.6829 12.56353754492486 SL-14 R/B 1 20262U 89080C 22145.67754484 .00000519 00000-0 14735-3 0 9994 2 20262 82.5933 340.8930 1237335 104.5103 269.6227 12.49067429487275 DELTA 1 R/B 1 20323U 89089B 22146.11342499 .00000369 00000-0 10399-3 0 9995 2 20323 97.0815 191.4021 0072066 163.6081 196.7471 14.48513849715832 DELTA 2 R/B(1) 1 20453U 90008B 22146.04568761 .00011586 00000-0 60787-3 0 9995 2 20453 35.6242 36.2285 0265231 102.5859 260.4652 14.89580741716560 COSMOS 2058 1 20465U 90010A 22145.84544500 .00001640 00000-0 13353-3 0 9990 2 20465 82.4869 312.3792 0014612 341.0926 18.9753 14.98842369734249 SL-14 R/B 1 20466U 90010B 22146.40365919 .00000397 00000-0 47448-4 0 9990 2 20466 82.5009 124.1979 0020749 167.4203 192.7534 14.81537032744608 SL-14 R/B 1 20511U 90018B 22146.23920340 .00000402 00000-0 49823-4 0 9991 2 20511 82.5241 73.8959 0016426 320.7549 201.0300 14.80191693738908 HST 1 20580U 90037B 22145.83533168 .00003402 00000-0 19047-3 0 9998 2 20580 28.4703 318.6673 0002674 145.0225 316.5399 15.10506502562793 SL-16 R/B 1 20625U 90046B 22145.87776937 .00000285 00000-0 17271-3 0 9998 2 20625 70.9996 323.3110 0016231 250.5739 109.3629 14.14695520652666 COSMOS 2084 1 20663U 90055A 22145.86822210 .00002072 00000-0 19284-3 0 9997 2 20663 62.7937 325.2424 0115170 47.5870 313.4897 14.92828395728925 SL-6 R/B(2) 1 20666U 90055D 22145.66490832 .00001916 00000-0 17295-3 0 9995 2 20666 62.7847 240.5021 0128645 70.2116 291.2796 14.93140714730856 SL-8 R/B 1 20775U 90078B 22145.66036769 .00013906 00000-0 65241-3 0 9992 2 20775 82.9259 1.8563 0553302 157.9709 204.6311 14.39526183607245 SL-8 R/B 1 21088U 91006B 22146.48176563 .00000021 00000-0 63651-5 0 9999 2 21088 82.9402 118.8039 0021537 311.6403 172.2123 13.77196572573935 OKEAN 3 1 21397U 91039A 22146.25588405 .00001359 00000-0 12590-3 0 9994 2 21397 82.5233 223.6665 0016444 323.7254 36.2851 14.93659082678948 COSMOS 2151 1 21422U 91042A 22145.86795367 .00001396 00000-0 13290-3 0 9999 2 21422 82.4989 329.2817 0014914 34.0397 326.1776 14.92640988656314 SL-14 R/B 1 21423U 91042B 22145.86791922 .00000447 00000-0 55970-4 0 9991 2 21423 82.4949 75.6980 0019097 100.5702 259.7664 14.79936731648283 ERS 1 1 21574U 91050A 22146.49921479 .00000199 00000-0 80556-4 0 9991 2 21574 98.6960 115.0619 0032682 345.5594 14.4655 14.37901220616847 ARIANE 40 R/B 1 21610U 91050F 22146.18272744 .00000323 00000-0 11364-3 0 9991 2 21610 98.3815 216.1245 0002032 305.0538 55.0460 14.41059006619891 INTERCOSMOS 25 1 21819U 91086A 22145.80262140 .00001397 00000-0 27998-3 0 9990 2 21819 82.5830 62.2467 1514435 204.2049 148.0035 12.05706315329500 SL-14 R/B 1 21820U 91086B 22146.01953584 .00000678 00000-0 12767-3 0 9994 2 21820 82.5572 134.1696 1575316 105.7454 272.2461 11.93762545321966 SL-8 R/B 1 21876U 92008B 22146.20773227 .00000071 00000-0 57244-4 0 9992 2 21876 82.9287 216.3512 0035605 40.0907 13.2035 13.75700112519412 SL-8 R/B 1 21938U 92020B 22145.41333264 .00000032 00000-0 17417-4 0 9995 2 21938 82.9289 101.7032 0028603 198.5207 275.3128 13.75302916510841 SL-16 R/B 1 22220U 92076B 22145.69057819 .00000171 00000-0 10961-3 0 9990 2 22220 71.0009 222.7794 0011457 36.3276 78.3980 14.16498459525823 SL-16 R/B 1 22285U 92093B 22146.11444980 -.00000045 00000-0 10757-5 0 9993 2 22285 71.0240 27.8693 0006511 261.9970 98.0414 14.15089388517722 COSMOS 2228 1 22286U 92094A 22145.92591957 .00001639 00000-0 17243-3 0 9994 2 22286 82.5182 112.0847 0019287 249.0202 110.8953 14.88705535590745 SL-16 R/B 1 22566U 93016B 22145.97063931 -.00000267 00000-0 -11327-3 0 9996 2 22566 71.0079 240.5799 0012742 269.3892 90.5770 14.15001360506424 COSMOS 2242 1 22626U 93024A 22146.44616766 .00001341 00000-0 14127-3 0 9998 2 22626 82.5194 140.0240 0017191 247.5391 112.4007 14.88532312574457 SL-16 R/B 1 22803U 93059B 22146.17495707 .00000073 00000-0 60378-4 0 9994 2 22803 70.9922 47.7638 0016537 165.5836 194.5763 14.16864206483803 ARIANE 40 R/B 1 22830U 93061H 22145.80426590 .00000231 00000-0 10342-3 0 9991 2 22830 98.6646 208.6519 0011749 50.9998 309.2229 14.31552346496021 COSMOS 2278 1 23087U 94023A 22146.18354888 -.00000266 00000-0 -11541-3 0 9999 2 23087 71.0522 188.3236 0010044 326.9080 33.1413 14.13864639449475 SL-16 R/B 1 23088U 94023B 22146.25815422 .00000272 00000-0 16619-3 0 9990 2 23088 70.9989 95.4577 0005248 249.5005 110.5555 14.14708621450685 SL-16 R/B 1 23343U 94074B 22145.63769876 .00000491 00000-0 76718-4 0 9992 2 23343 97.8944 199.0612 0007633 39.9955 78.2240 14.77025365482798 SL-16 R/B 1 23405U 94077B 22145.64450131 -.00000074 00000-0 -13387-4 0 9998 2 23405 70.9841 23.4614 0000816 161.3784 198.7368 14.15255422420391 ERS 2 1 23560U 95021A 22146.15245016 .00008152 00000-0 31557-3 0 9992 2 23560 98.5072 48.4706 0001607 279.4630 80.6424 15.26511080449946 ARIANE 40+ R/B 1 23561U 95021B 22145.80666084 .00000311 00000-0 11750-3 0 9998 2 23561 98.6244 203.0238 0006042 320.7469 152.6614 14.38142540420455 SL-16 R/B 1 23705U 95058B 22146.14427030 -.00000064 00000-0 -86548-5 0 9998 2 23705 71.0212 204.0956 0010464 63.7123 296.5074 14.15171626372396 SL-16 R/B 1 24298U 96051B 22146.21760074 .00000017 00000-0 35658-4 0 9997 2 24298 70.8190 217.7339 0013774 12.4086 347.7370 14.12410121326556 ORBVIEW 2 (SEASTAR) 1 24883U 97037A 22145.89567392 .00000333 00000-0 13614-3 0 9991 2 24883 98.6772 269.1937 0002741 152.1140 208.0192 14.33734590310073 SL-16 R/B 1 25400U 98043G 22146.45720324 .00000053 00000-0 40968-4 0 9996 2 25400 98.6721 82.8199 0011071 74.6369 285.6033 14.25513896242119 SL-16 R/B 1 25407U 98045B 22146.40072443 -.00000126 00000-0 -39846-4 0 9998 2 25407 71.0116 209.7087 0008862 320.2402 39.8070 14.15863251231555 ISS (ZARYA) 1 25544U 98067A 22146.54922786 .00010497 00000-0 19367-3 0 9998 2 25544 51.6433 83.7546 0005028 159.7830 12.5104 15.49695150341821 CZ-4B R/B 1 25732U 99025C 22145.65789186 .00000060 00000-0 51220-4 0 9998 2 25732 98.8556 187.0734 0037158 354.3784 113.7252 14.17729390192028 OKEAN O 1 25860U 99039A 22144.67569813 .00000674 00000-0 10329-3 0 9994 2 25860 98.1404 184.3323 0001868 100.7086 259.4334 14.76932831229746 SL-16 R/B 1 25861U 99039B 22146.08048863 .00000626 00000-0 92344-4 0 9994 2 25861 98.1800 172.7088 0016560 48.3011 311.9613 14.78815962232325 TERRA 1 25994U 99068A 22146.50030420 .00000396 00000-0 97589-4 0 9990 2 25994 98.1373 218.9229 0001443 95.3486 322.4672 14.57167525193420 ENVISAT 1 27386U 02009A 22145.97005428 .00000321 00000-0 11940-3 0 9990 2 27386 98.1807 128.1300 0000888 65.4232 294.7111 14.38125293 60304 IDEFIX/ARIANE 42P 1 27422U 02021B 22145.83757447 .00000281 00000-0 12678-3 0 9999 2 27422 98.4482 92.5149 0011264 307.8088 52.2074 14.29411331 46225 AQUA 1 27424U 02022A 22145.83444493 .00000872 00000-0 20283-3 0 9993 2 27424 98.2466 87.9413 0001117 56.2930 1.2549 14.57279064 66933 CZ-4B R/B 1 27432U 02024C 22146.30315259 .00000065 00000-0 57690-4 0 9991 2 27432 99.0628 171.0969 0050033 340.4807 30.2695 14.14139753 33777 ADEOS 2 1 27597U 02056A 22145.83674411 .00000250 00000-0 11922-3 0 9996 2 27597 98.6054 90.0502 0002214 83.5010 276.6423 14.27605966 12746 H-2A R/B 1 27601U 02056E 22145.91809691 .00000241 00000-0 10208-3 0 9997 2 27601 98.1765 153.8466 0071359 329.4915 97.8969 14.32069848 15958 CZ-4B R/B 1 28059U 03049C 22145.78426868 .00000324 00000-0 89269-4 0 9990 2 28059 98.5192 82.2345 0050790 135.5766 224.9520 14.52777095985506 CZ-2C R/B 1 28222U 04012C 22145.91063628 .00005654 00000-0 32093-3 0 9992 2 28222 97.7696 126.3407 0046508 128.4833 285.0229 15.12432333992866 SL-16 R/B 1 28353U 04021B 22145.72084470 -.00000161 00000-0 -59590-4 0 9996 2 28353 71.0004 255.9580 0006178 320.3693 39.6977 14.14261861927134 CZ-2C R/B 1 28480U 04046B 22146.43627995 .00000137 00000-0 67660-4 0 9996 2 28480 98.0634 135.9302 0140487 287.6803 70.9083 14.25827941911310 ARIANE 5 R/B 1 28499U 04049H 22146.23498472 .00001121 00000-0 14374-3 0 9990 2 28499 98.0942 262.7832 0092360 145.6043 274.8781 14.80398682940839 CZ-2D R/B 1 28738U 05024B 22145.86692298 .00003859 00000-0 21761-3 0 9998 2 28738 97.3514 154.7687 0009608 253.0092 107.0087 15.13711879928332 ASTRO E2 1 28773U 05025A 22146.06263846 .00008501 00000-0 37025-3 0 9993 2 28773 31.3797 88.3053 0003785 146.6706 213.4180 15.20900565931598 ALOS 1 28931U 06002A 22146.49405421 .00001298 00000-0 26098-3 0 9993 2 28931 97.9340 112.1739 0002226 53.8690 306.2696 14.63167870871218 H-2A R/B 1 28932U 06002B 22145.74864851 .00002908 00000-0 26309-3 0 9991 2 28932 98.2932 186.9949 0087211 165.5852 194.7885 14.93424303886755 ASTRO F (AKARI) 1 28939U 06005A 22144.82174207 .00027339 00000-0 52172-3 0 9990 2 28939 98.1963 215.0905 0070749 1.1028 359.0361 15.45347840889452 RESURS DK-1 1 29228U 06021A 22143.53055615 .00001739 00000-0 13553-3 0 9994 2 29228 69.9347 192.5309 0001415 123.5639 236.5658 15.03189728878633 GENESIS 1 1 29252U 06029A 22146.36480319 .00005184 00000-0 23423-3 0 9991 2 29252 64.5200 143.6300 0060234 265.3522 94.0721 15.20525349875690 CZ-4B R/B 1 29507U 06046C 22145.68483278 .00002700 00000-0 20770-3 0 9997 2 29507 97.7329 175.8671 0045978 306.1908 53.5069 15.01746382851455 CZ-2C R/B 1 31114U 07010B 22146.06819099 .00000163 00000-0 94741-4 0 9994 2 31114 98.2397 320.7462 0059726 4.4625 355.7073 14.19428461783394 SKYMED 1 1 31598U 07023A 22146.52839639 .00000403 00000-0 57173-4 0 9992 2 31598 97.8887 330.5075 0001422 94.1964 265.9434 14.82162857809712 GENESIS 2 1 31789U 07028A 22145.49973067 .00005007 00000-0 23876-3 0 9995 2 31789 64.4960 189.5901 0045455 318.5257 41.2420 15.19411900822473 COSMOS 2428 1 31792U 07029A 22146.39566070 .00000343 00000-0 21097-3 0 9993 2 31792 70.9460 226.0407 0004776 88.9520 271.2148 14.12547702768826 SL-16 R/B 1 31793U 07029B 22146.18232373 .00000113 00000-0 83733-4 0 9998 2 31793 70.9762 199.6495 0002750 276.8789 143.6773 14.14478243769809 KORONAS-FOTON 1 33504U 09003A 22146.30183356 .00003224 00000-0 16054-3 0 9991 2 33504 82.4428 238.0002 0017993 352.7222 7.3747 15.17102720734730 H-2A R/B 1 38341U 12025E 22146.16719235 .00001598 00000-0 19103-3 0 9998 2 38341 98.5079 359.9545 0055887 117.7719 242.9176 14.84680723542426 CUSAT 2/FALCON 9 1 39271U 13055G 22146.15807361 .00033597 00000-0 73506-3 0 9993 2 39271 80.9591 219.6862 0533837 185.3908 174.1411 14.61580688453517 ALOS 2 1 39766U 14029A 22146.42419527 -.00000281 00000-0 -30782-4 0 9993 2 39766 97.9210 243.8681 0001420 90.1511 269.9844 14.79468355432370 SL-27 R/B 1 40354U 14084B 22145.86561757 .00007705 00000-0 16808-3 0 9997 2 40354 74.7388 2.2135 0035523 194.2639 165.7576 15.43645968417112 ASTRO H 1 41337U 16012A 22145.43164352 .00001784 00000-0 13549-3 0 9995 2 41337 31.0040 205.8419 0012257 219.6872 140.2867 14.99364100343666